Tracking 34085 objects as of 13-May-2026
HD Live streaming from Space Station
objects crossing your sky now

STARLINK-37083

Track STARLINK-37083 now!
10-day predictions
STARLINK-37083 is classified as:


NORAD ID: 68227
Int'l Code: 2026-053W
Perigee: 471.4 km
Apogee: 473.9 km
Inclination: 97.3 °
Period: 93.9 minutes
Semi major axis: 6843 km
RCS: Unknown
Launch date: March 17, 2026
Source: United States (US)
Launch site: AIR FORCE WESTERN TEST RANGE (AFWTR)
Your satellite tracking list
Your tracking list is empty




NASA's NSSDC Master Catalog

Two Line Element Set (TLE):
1 68227U 26053W   26132.90810824  .00007222  00000-0  22578-3 0  9997
2 68227  97.2865   8.5924 0001792  92.5921 267.5527 15.33451279 10037
Source of the keplerian elements: AFSPC